Other Surface Observations
Issued by NWS Tucson, AZ

Home | Current Version | Previous Version | Text Only | Print | Product List | Glossary On
Versions: 1 2 3 4 5 6 7 8 9 10 11 12 13 14 15 16 17 18 19 20 21 22 23 24 25 26 27 28 29 30 31 32 33 34 35 36 37 38 39 40 41 42 43 44 45 46 47 48 49 50
000
SXUS55 KTWC 300416
OSOTWC

WEATHER ROUNDUP FOR SOUTHEAST ARIZONA
NATIONAL WEATHER SERVICE TUCSON AZ
915 PM MST FRI MAY 29 2015

AZZ504>506-514-300515-
LOCATION       SKY/WX    TMP DP  RH WIND       PRES   REMARKS
TUCSON         CLEAR     88  26  10 N9        29.93R
DAVIS-MONTHAN  CLEAR     86  26  11 NW7       29.92R
CHILDRENS PARK N/A       91  27  10 NW6               PIMA CO DEQ
ALVERNON/22ND  N/A      N/A N/A N/A N/A               PIMA CO DEQ
CHERRY/GLENN   N/A      N/A N/A N/A N/A               PIMA CO DEQ
TANGERINE      N/A       90 N/A N/A N7                PIMA CO DEQ
CONTL RANCH    N/A       92  30  11 NW7               PIMA CO DEQ
GRANT/1ST      N/A       92  28  10 NW7               PIMA CO DEQ
CRAYCROFT/22ND N/A      N/A N/A N/A N/A               PIMA CO DEQ
GOLFLINKS/KOLB N/A      N/A N/A N/A N/A               PIMA CO DEQ
AJO/12TH       N/A       92  25   9 NW7               PIMA CO DEQ
SAGUARO EAST   N/A      N/A N/A N/A N/A               PIMA CO DEQ
FAIRGROUNDS    N/A       88 N/A N/A NW8               PIMA CO DEQ
SAGUARO        N/A       89  23   9 N7G13             *SABINO CYN
SAN CARLOS     N/A       85  20   9 NW3G13            *SAN CARLOS
GREEN VALLEY   N/A       90  26  10 NW6               PIMA CO DEQ
HORSE CAMP CYN N/A       81  19  10 W10G17            *ARAVAIPA CYN
RINCON MTNS    N/A       60  22  23 N4                *NR MANNING CAMP
$$

AZZ509>511-300515-
LOCATION       SKY/WX    TMP DP  RH WIND       PRES   REMARKS
SAFFORD        PTCLDY    80  20  10 W10       29.93R
STRAY HORSE    N/A       64  20  18 N3                *
TRAIL CABIN    N/A       72  20  14 W4G10             *N OF GRANVILLE
BLACK HILLS    N/A       84  22  10 N8G11             *N OF FT THOMAS
DRY LAKE       N/A       63  19  18 W5                *NATANES MTNS
NOON CREEK     N/A       72  26  18 SW8G12            *PINALENO MTNS
COLUMBINE      N/A       50   8  18 CALM              *PINALENO MTNS
GUTHRIE        N/A       74  14  10 W12G20            *SW OF GUTHRIE
$$

AZZ502-503-513-300515-
LOCATION       SKY/WX    TMP DP  RH WIND       PRES   REMARKS
NOGALES        CLEAR     73  22  14 CALM      30.03R
SELLS          N/A       85  39  20 SW9G19            *
SASABE         N/A       83  39  21 W14G22            *ALTAR VLY
HOPKINS        N/A       65  20  18 W9G14             *SANTA RITA MTNS
CARR CYN       N/A       74  22  14 SW5G10            *W OF HEREFORD
$$

AZZ507-508-512-300515-
LOCATION       SKY/WX    TMP DP  RH WIND       PRES   REMARKS
SIERRA VISTA   CLEAR     76  23  14 W10       30.09R
DOUGLAS        PTCLDY    76  26  15 SW8       30.03R
EMPIRE MTNS    N/A       70  27  20 W5                *LAS CIENEGAS NCA
MULESHOE RANCH N/A       81  24  12 N8G15             *PRESERVE
HEADQUARTERS   N/A       70  25  18 E3                *CHIRICAHUA MTNS
$$

.............................NOTES.............................
THIS IS AN AUTOMATED COLLECTIVE WITH MINIMAL QUALITY CONTROL.
PIMA CO DEQ SITES HAVE NONSTANDARD WIND SENSOR HEIGHTS.
PIMA CO DEQ SITES DO NOT REPORT WIND GUSTS.
* INDICATES WIND SENSORS LOCATED AT 20 FEET INSTEAD OF 33 FEET.
..............................KEY..............................
SKY/WX - SKY CONDITION/WEATHER
TMP    - TEMPERATURE IN FAHRENHEIT
DP     - DEWPOINT IN FAHRENHEIT
RH     - RELATIVE HUMIDITY IN PERCENT
WIND   - DIRECTION AND SPEED IN MILES PER HOUR (MPH)
VRB    - VARIABLE WIND DIRECTION
PRES   - MEAN SEA LEVEL PRESSURE IN INCHES OF MERCURY
         F - FALLING PRESSURE   R - RISING PRESSURE
         S - STEADY PRESSURE
VSB    - VISIBILITY IN MILES
HX     - HEAT INDEX IN FAHRENHEIT
WCI    - WIND CHILL INDEX IN FAHRENHEIT
N/A    - NOT AVAILABLE
AFB    - AIR FORCE BASE
         DAVIS-MONTHAN IS DAVIS-MONTHAN AIR FORCE BASE
CYN    - CANYON
MTNS   - MOUNTAINS
NCA    - NATIONAL CONSERVATION AREA
NR     - NEAR
VLY    - VALLEY
CONTL  - CONTINENTAL
PIMA CO DEQ - PIMA COUNTY DEPT OF ENVIRONMENTAL QUALITY



USA.gov is the U.S. government's official web portal to all federal, state and local government web resources and services.